Theta_e
314 314 318 317 315 313 311 309 307 306 304 302 302 302 302 302 302 303 304 306 311 314 315 314 312 310 311 316 324 324 316 318 320 323 324 323 323 324 326 329 329 329 330 330 325
312 312 314 316 318 315 313 311 310 308 307 305 304 303 302 302 302 302 303 303 305 308 315 316 314 312 314 317 325 321 313 314 315 319 319 321 323 324 325 329 330 330 330 331 325
310 312 313 313 316 318 316 313 312 310 309 308 306 305 304 303 302 303 303 303 303 305 310 317 315 317 317 319 323 319 316 316 318 320 322 322 322 323 322 323 328 329 329 330 326
309 310 311 312 313 315 318 316 313 311 310 309 308 306 305 304 302 308 306 303 303 304 308 310 316 320 317 318 320 321 320 317 318 321 322 320 322 322 322 323 324 326 328 328 326
308 309 310 311 313 313 314 318 317 313 311 309 308 307 306 305 303 304 307 304 305 303 307 310 316 320 318 317 318 320 320 320 320 321 321 321 321 321 323 323 324 325 326 328 327
310 308 310 311 311 312 312 315 318 317 312 310 309 308 307 306 304 303 306 306 304 306 304 311 316 319 319 318 316 317 318 318 320 320 320 321 320 321 321 322 323 324 326 329 329
307 309 309 310 310 311 312 312 316 318 315 311 310 309 308 307 305 305 303 306 306 304 308 311 319 319 319 318 319 319 319 317 317 319 319 319 318 319 320 320 322 322 324 329 330
305 306 308 310 309 309 310 312 314 315 317 313 311 309 309 310 308 305 304 304 305 306 308 311 321 319 320 319 318 319 317 317 315 317 319 318 314 315 319 320 321 321 321 320 320
305 304 306 307 309 308 308 310 312 314 315 315 312 309 309 310 310 309 304 305 307 308 312 317 320 319 319 316 317 315 317 318 317 314 316 317 317 315 317 318 320 320 319 318 318
305 305 306 306 307 308 307 308 310 312 313 315 312 310 310 310 311 310 306 307 312 313 313 316 318 316 314 315 317 316 318 314 316 312 312 313 315 316 317 315 315 317 316 316 316
304 304 305 305 306 308 307 308 309 310 312 313 311 311 310 310 310 309 309 312 314 315 311 315 316 316 315 317 312 312 315 313 311 311 311 310 310 311 311 311 312 315 316 315 314
303 304 305 304 305 307 307 309 310 312 312 313 312 311 310 310 309 309 309 311 314 313 312 315 315 313 314 315 314 313 313 312 311 311 312 310 309 309 310 310 313 313 314 314 314
301 303 304 305 304 305 306 307 309 311 312 312 313 311 311 309 309 309 310 311 312 311 313 311 311 312 313 314 316 315 312 312 311 311 310 308 308 308 308 309 311 313 313 314 314
301 300 302 305 304 304 305 305 307 309 311 310 312 311 310 309 309 309 309 309 311 311 311 312 310 311 313 314 315 317 313 313 313 313 312 309 311 308 306 305 305 309 310 310 311
302 300 302 302 304 304 305 305 306 307 311 309 311 311 311 309 309 309 308 308 309 310 311 308 309 312 314 313 313 313 313 314 315 313 312 311 312 308 307 307 306 307 310 309 309
301 300 301 302 303 304 304 306 306 308 309 308 310 311 311 311 310 308 308 309 310 310 310 306 309 309 310 311 312 310 310 309 309 310 310 309 310 306 306 307 306 305 307 309 310
302 301 300 302 304 303 304 305 308 307 306 309 310 311 311 311 311 310 308 309 310 309 308 306 308 308 310 310 311 310 311 308 312 310 309 307 310 309 306 306 305 304 307 308 309
302 301 301 301 301 304 304 305 307 307 306 307 309 309 311 310 311 310 310 309 307 306 305 308 308 308 307 309 312 313 311 309 308 311 308 306 310 308 306 307 308 308 308 308 308
302 302 301 301 303 301 304 306 306 304 306 307 308 311 310 309 310 310 311 310 308 305 308 306 307 307 307 307 310 312 314 308 307 297 304 306 305 303 305 305 306 305 307 308 308
302 303 302 301 303 302 303 305 302 301 304 307 309 307 309 310 310 311 310 309 308 307 305 305 307 306 308 309 308 311 309 311 305 301 303 304 305 305 305 305 304 303 306 308 309
299 303 302 300 300 300 304 303 301 300 301 304 308 307 307 309 310 310 310 308 308 307 307 304 306 303 307 309 310 310 310 309 308 305 305 302 301 300 305 305 303 302 305 308 309
299 301 301 302 301 300 303 295 299 300 300 301 297 304 306 308 309 308 310 309 308 308 308 306 306 307 306 305 308 309 309 309 310 308 306 305 304 301 300 301 302 304 306 308 309
298 299 302 302 302 300 291 295 295 297 300 301 300 299 305 306 308 309 308 307 307 307 308 307 308 310 307 308 306 309 309 309 308 305 308 307 306 302 301 302 305 304 306 306 309
297 300 301 300 300 291 288 289 292 297 298 298 299 301 300 304 305 305 307 307 307 308 308 307 308 310 310 308 306 310 310 309 309 311 309 308 308 305 305 304 303 306 307 306 309
297 299 300 301 300 297 295 292 292 294 297 298 299 298 299 299 301 306 305 308 306 307 308 308 310 308 308 307 306 307 310 310 310 309 310 309 307 307 306 302 303 306 306 306 307
298 299 300 300 300 299 296 293 297 294 297 297 296 299 299 300 301 301 304 306 309 307 309 308 309 308 309 307 306 307 307 309 311 310 309 309 308 308 308 305 305 305 305 306 307
298 300 300 300 300 298 296 295 296 297 296 298 297 298 298 299 300 300 302 302 304 306 306 306 309 309 310 308 308 308 308 308 309 310 310 310 309 309 309 304 304 304 306 308 308
Wind_Speed
28 24 20 22 20 17 16 15 14 12 12 11 11 11 12 13 15 17 18 16 12 18 14 8 6 6 4 4 5 5 4 4 6 7 5 7 4 6 6 8 8 8 5 4 8
33 31 27 22 22 21 18 15 14 13 13 11 10 11 11 12 13 16 14 12 14 15 10 11 5 3 3 4 5 4 4 9 6 5 4 3 5 10 7 8 8 10 10 8 13
33 30 31 28 23 22 21 18 15 13 12 12 12 11 10 9 12 7 11 16 15 12 12 7 6 6 4 3 4 5 5 4 4 4 3 2 2 4 7 3 10 16 13 13 19
34 32 30 28 27 22 20 22 18 15 13 12 11 11 9 6 4 4 5 8 13 13 12 10 6 5 4 4 4 2 5 4 2 2 1 0 1 2 7 4 9 14 12 16 21
40 33 29 28 28 27 24 20 20 18 15 12 11 10 9 7 12 6 2 3 6 14 12 10 9 6 4 4 5 3 2 5 6 4 3 5 6 3 7 9 5 7 13 19 21
28 29 27 26 27 29 27 23 19 20 17 14 12 11 12 5 10 10 9 3 2 8 13 12 5 6 3 2 4 2 2 1 3 5 5 3 4 2 6 13 10 8 12 17 22
33 27 27 27 28 27 24 25 20 17 20 17 15 13 15 20 8 9 12 10 3 2 9 13 5 7 5 2 3 1 1 2 5 5 5 3 6 7 25 10 14 10 10 15 19
37 37 31 27 26 27 26 23 23 18 17 19 16 14 10 14 20 16 10 12 10 5 9 14 7 5 3 4 4 1 3 2 2 4 4 7 9 8 24 19 22 23 20 18 19
33 36 37 31 27 29 25 22 19 20 20 21 21 16 8 8 14 17 13 9 10 7 11 9 8 3 4 5 3 4 2 5 6 9 1 6 5 6 15 19 21 23 21 22 24
32 32 35 35 28 27 28 23 19 19 23 16 20 9 14 7 9 17 18 11 8 9 7 6 8 3 2 4 6 7 5 3 4 1 1 5 9 13 20 9 15 24 29 29 29
33 32 32 32 29 27 21 19 14 12 23 12 11 7 2 16 10 13 18 13 10 9 5 5 7 11 8 10 2 4 4 4 3 4 2 8 9 16 25 18 24 32 31 30 34
37 32 32 33 32 25 23 30 25 7 8 33 10 29 2 15 8 13 20 11 7 5 6 3 16 5 6 4 4 4 4 5 4 3 3 8 11 11 15 12 24 32 34 38 38
39 39 32 32 33 29 32 38 23 16 5 9 29 22 16 15 5 24 27 11 4 6 8 6 3 13 7 4 6 4 5 4 2 5 3 7 11 10 9 16 31 37 38 38 38
32 39 37 32 26 32 38 38 31 18 7 8 13 13 19 9 6 17 34 15 4 9 6 7 3 7 4 11 8 13 8 7 3 3 4 3 9 5 4 8 6 25 33 36 34
34 36 35 36 20 33 27 35 31 22 13 11 12 13 27 17 10 12 32 17 9 8 7 7 9 9 11 8 10 4 6 9 6 3 3 2 4 4 1 6 10 17 31 29 30
32 33 36 35 35 36 35 21 28 9 13 8 14 16 12 23 14 11 14 9 7 5 2 4 2 4 5 3 12 6 5 5 3 3 4 8 7 6 5 6 3 6 7 11 16
32 32 38 36 35 38 29 30 12 16 7 8 12 16 24 12 16 12 14 10 9 5 7 1 5 3 6 5 3 5 7 1 2 3 7 1 5 18 7 11 7 10 19 16 17
31 30 33 37 41 40 35 14 18 12 16 3 10 20 22 19 13 13 16 14 13 4 4 9 6 13 7 7 6 14 10 6 8 5 3 1 9 8 7 17 21 23 21 20 12
30 32 36 37 40 42 36 16 16 5 10 12 12 14 17 21 9 14 15 19 18 15 12 6 7 3 3 5 10 6 11 6 5 2 2 5 7 9 13 14 17 13 15 18 12
27 37 41 41 35 45 16 28 6 4 3 7 21 13 13 22 16 20 18 16 9 20 3 7 2 3 12 3 5 7 8 3 1 3 4 5 5 9 6 8 10 8 13 15 12
28 21 33 42 39 19 13 10 2 6 3 6 11 10 10 11 19 14 8 9 24 20 22 6 4 3 7 11 14 5 7 5 5 5 5 2 7 8 15 14 9 9 9 11 17
18 5 30 45 13 6 10 8 9 9 8 2 2 6 7 11 15 13 18 15 30 24 22 11 5 7 9 5 14 22 19 20 7 8 8 2 10 4 7 6 8 18 15 10 17
8 8 40 52 12 7 1 4 6 6 8 13 4 2 2 7 6 16 14 11 17 19 17 15 7 5 2 2 3 12 14 17 13 3 11 7 13 2 3 6 15 15 15 11 18
5 3 15 22 13 8 7 6 4 1 6 4 6 5 4 5 3 5 15 9 15 27 24 22 10 14 19 16 8 11 18 18 18 13 17 12 23 16 1 5 10 13 15 13 21
14 6 12 13 13 12 9 12 7 6 2 9 3 6 8 6 4 8 4 1 3 20 21 9 9 20 26 23 9 15 21 24 23 24 16 27 25 28 17 10 9 14 15 12 25
16 9 16 15 23 15 17 13 23 6 12 7 6 16 15 12 11 10 9 5 9 4 12 9 6 10 21 20 12 11 17 23 22 26 25 24 20 26 28 20 19 22 13 16 29
33 32 31 19 18 17 20 19 20 14 5 16 16 7 6 15 20 10 8 6 3 4 7 4 11 10 19 23 21 17 19 20 23 23 25 24 31 31 28 9 19 24 22 27 30
Wind_Direction
256 253 252 246 249 251 255 255 254 255 261 264 266 268 273 274 270 268 263 256 250 251 254 264 272 267 256 186 169 154 72 201 211 160 232 172 167 160 170 160 185 201 206 191 190
250 254 253 251 247 247 249 251 254 255 257 261 272 276 278 284 283 268 257 253 246 247 250 243 250 215 205 189 168 130 144 218 204 197 205 177 197 171 161 172 203 208 212 201 193
249 247 252 252 249 243 245 247 249 252 254 258 262 269 282 294 304 276 258 245 238 237 233 224 205 184 195 187 189 158 193 215 204 194 182 172 187 196 161 202 210 210 205 199 192
257 248 247 246 247 244 242 241 243 246 251 253 255 260 262 273 237 326 280 256 233 224 223 212 198 173 158 187 185 178 232 179 210 217 236 185 283 207 213 221 213 219 210 207 200
249 239 241 243 247 244 246 238 236 240 244 248 247 250 251 242 249 266 309 334 239 220 221 202 187 159 182 189 154 178 240 196 226 231 287 289 273 276 258 237 235 218 216 205 209
246 241 242 238 239 243 239 244 230 233 236 240 242 234 229 233 254 253 239 219 25 224 217 204 193 184 188 172 180 229 238 233 231 248 264 245 266 208 256 240 236 231 214 208 213
245 240 241 242 240 240 241 239 239 224 227 232 235 232 230 240 241 246 231 229 226 252 219 208 182 179 170 158 210 155 315 339 213 214 235 218 269 214 247 246 218 218 216 221 226
248 246 239 240 238 242 243 238 233 240 232 221 229 223 242 257 240 240 234 227 234 225 203 208 209 165 163 135 56 121 57 63 242 178 215 153 258 246 238 233 236 242 245 240 237
241 242 240 238 237 241 242 237 235 231 236 218 206 207 246 243 239 226 222 227 223 213 195 196 197 171 145 110 56 6 216 217 306 197 194 193 276 254 243 235 246 257 249 247 250
244 235 240 236 236 231 235 238 238 238 230 219 197 194 235 217 217 203 206 203 188 187 183 181 197 158 88 130 195 184 202 244 235 341 251 248 262 272 263 252 253 255 258 262 262
246 237 237 236 234 226 221 215 217 236 222 204 187 204 222 199 169 186 185 169 168 173 161 194 205 210 186 199 127 141 154 181 253 266 268 244 246 261 271 267 260 258 258 260 259
237 242 239 234 229 220 216 209 209 204 217 223 223 209 212 174 150 176 187 168 164 171 145 148 226 185 167 208 168 145 156 201 278 280 211 282 261 250 262 251 255 258 259 259 262
237 235 238 233 230 230 225 224 218 212 261 228 212 201 206 199 229 178 181 171 145 158 190 184 184 191 172 187 194 198 169 172 214 328 297 328 276 235 242 244 251 255 257 259 260
239 231 229 232 228 222 223 225 224 215 246 203 184 214 204 191 268 190 184 160 175 182 140 244 213 168 173 216 171 239 175 189 247 4 249 36 289 272 246 248 247 255 258 263 265
234 229 227 217 212 212 221 216 220 211 229 192 167 194 189 173 155 190 189 181 162 168 153 225 174 170 204 204 175 211 164 187 196 200 342 182 283 272 287 251 255 252 263 273 276
228 226 223 219 222 228 211 200 203 216 216 184 147 168 157 193 196 140 169 175 162 143 349 197 182 190 194 123 175 147 85 51 62 124 269 189 175 249 197 221 242 263 285 332 296
228 222 220 219 215 221 207 193 212 216 132 177 179 174 185 173 181 163 177 181 163 144 220 119 219 235 171 125 127 156 131 56 219 196 233 37 183 258 277 263 233 259 280 291 335
222 220 219 220 218 210 197 205 226 197 191 178 170 186 191 178 194 176 169 191 218 151 115 196 271 190 187 175 169 195 179 164 198 198 256 338 229 253 250 284 277 265 268 276 297
217 219 217 213 214 207 195 210 214 154 163 158 161 184 202 198 157 177 189 199 195 183 188 175 249 155 166 155 147 171 213 192 106 38 51 221 287 289 260 273 270 254 256 255 248
221 211 213 208 194 197 201 215 178 104 148 225 185 181 189 186 194 192 191 199 209 200 156 207 272 198 192 143 236 181 148 183 117 151 246 259 271 240 300 275 265 264 231 242 205
248 197 206 212 210 211 220 195 150 125 57 212 208 176 196 175 195 195 196 204 195 193 199 168 150 281 142 208 174 156 194 205 161 171 184 259 257 212 228 240 264 286 283 242 199
237 236 186 186 185 188 209 154 168 168 185 33 99 226 156 176 202 203 203 213 204 188 199 195 185 201 203 232 208 204 203 194 189 215 231 141 259 192 226 261 266 279 286 256 210
225 252 173 177 195 170 64 149 155 148 175 156 231 179 200 179 223 207 230 245 197 184 192 184 216 207 275 304 206 213 219 204 213 55 206 201 253 151 260 277 275 275 291 259 203
170 249 164 185 168 136 136 176 169 267 148 126 137 113 80 206 173 302 213 193 198 202 200 170 214 214 228 233 138 202 206 214 209 227 234 221 257 248 180 258 279 279 283 265 216
202 247 184 179 194 186 157 159 144 162 191 159 93 166 154 181 160 216 322 254 240 209 199 200 219 218 234 238 193 206 208 213 214 221 220 237 239 257 243 240 260 281 282 257 215
240 196 178 190 180 163 175 201 185 174 159 195 176 193 192 198 192 190 183 189 226 180 207 202 219 201 236 241 226 230 212 212 218 224 232 246 253 255 258 242 234 245 243 226 215
199 192 184 163 170 176 200 183 190 161 243 201 193 145 163 214 207 192 153 112 128 167 199 217 217 212 234 227 232 234 225 210 220 226 221 233 241 249 253 231 232 225 231 229 219